Wind_Speed
24 23 23 24 24 23 25 26 25 23 21 20 19 18 17 14 12 11 10 9 8 7 6 7 7 7 7 8 8 8 8 8 8 8 8 7 6 6 5 5 6 6 6 7 7 8 9 8 8
24 24 23 23 24 24 26 27 26 24 22 21 20 19 17 15 13 12 11 9 8 7 7 7 7 7 7 7 7 8 8 8 8 7 7 6 6 5 5 5 5 5 6 7 7 8 8 7 7
23 23 23 23 24 26 26 26 25 23 23 23 21 19 17 15 14 12 11 9 8 7 7 7 7 7 7 7 8 8 8 8 7 7 7 7 7 6 6 6 5 6 6 7 7 7 7 7 7
23 24 23 23 24 26 26 26 25 24 23 22 21 19 17 15 13 12 11 9 8 7 8 8 7 7 7 8 8 8 7 7 7 7 6 6 7 7 7 6 5 5 6 6 7 7 7 7 7
21 22 22 23 24 25 25 25 25 24 23 22 21 19 17 15 14 13 12 9 8 8 8 8 8 7 8 8 7 7 7 7 7 6 6 6 6 7 7 6 6 6 6 7 7 7 7 7 7
20 20 22 23 24 25 26 27 27 25 23 22 22 20 18 16 15 14 13 11 10 9 9 8 7 7 7 7 7 7 6 6 6 6 6 6 6 6 7 7 7 6 7 7 7 7 8 7 7
19 19 21 23 24 26 27 27 27 25 23 23 22 21 19 17 16 15 13 12 11 10 9 8 8 7 6 7 6 6 6 6 6 6 6 6 6 6 6 6 7 6 7 7 7 6 7 7 7
17 18 20 22 24 25 26 27 26 25 24 22 22 22 20 18 16 15 14 13 13 12 11 10 9 7 7 6 6 5 5 5 5 5 6 6 6 6 5 6 6 6 7 7 7 6 7 7 7
14 17 19 21 23 23 25 26 25 24 23 22 22 22 21 19 17 17 16 15 14 13 13 11 10 8 7 6 6 6 5 5 4 4 5 5 5 5 6 6 6 6 6 6 6 6 6 6 5
12 15 17 19 21 22 23 25 24 23 23 23 22 21 21 19 18 17 17 16 15 15 14 13 11 9 8 6 6 5 5 5 4 4 4 4 5 5 5 6 6 6 5 5 5 5 4 4 4
9 12 15 17 19 20 21 23 23 23 23 22 22 21 20 19 18 17 17 17 17 16 15 14 13 11 8 7 6 5 5 4 4 3 3 3 4 4 5 5 5 5 5 5 4 4 3 3 3
7 9 13 15 17 19 20 21 22 22 22 22 21 20 19 19 18 18 18 18 18 17 15 14 13 12 9 8 7 6 5 4 4 4 3 3 3 3 4 4 4 3 3 4 3 3 3 2 2
5 7 10 13 15 17 19 20 21 21 21 21 20 19 19 19 18 18 18 18 18 17 16 14 13 12 10 9 7 7 6 5 5 4 4 3 3 3 3 3 3 3 2 2 2 3 2 1 1
3 5 7 10 12 14 17 18 19 20 20 19 18 17 18 19 18 18 18 18 18 17 17 15 14 12 11 10 8 6 6 5 5 4 4 3 3 3 3 3 3 3 3 2 2 3 3 2 1
1 3 5 7 9 11 13 15 16 17 18 17 16 16 16 17 17 18 18 17 17 17 17 15 14 13 11 10 8 6 6 5 4 4 3 2 2 3 3 3 3 3 3 3 2 3 3 2 2
3 1 3 4 6 8 9 12 13 14 15 16 15 14 15 16 17 17 17 17 16 17 17 15 14 13 11 10 8 7 5 5 4 3 3 2 0 2 3 4 4 4 4 4 3 3 3 3 3
7 4 2 0 3 5 7 9 10 11 12 13 14 14 14 14 15 16 16 16 16 15 15 15 14 13 12 11 9 7 6 4 4 3 3 2 1 2 3 4 4 4 4 4 4 4 5 5 5
10 8 6 3 1 3 4 6 7 8 9 10 12 13 13 13 14 14 15 15 15 14 14 15 14 13 12 11 10 7 6 5 3 3 3 2 1 1 2 3 3 4 5 5 6 6 6 7 7
13 11 9 7 5 4 3 4 5 6 7 8 10 11 12 12 13 13 13 13 13 14 14 14 14 13 12 10 9 8 7 5 3 3 3 2 2 1 2 3 4 4 5 5 6 6 6 7 7
15 13 11 10 8 7 5 5 4 6 7 8 9 10 11 11 11 11 12 12 13 13 13 13 13 12 12 10 9 8 7 5 3 3 2 2 2 2 3 3 4 4 5 6 6 6 7 7 8
17 16 14 13 12 10 8 7 7 6 7 7 9 10 10 10 10 10 11 11 11 12 12 12 12 12 11 10 9 8 7 5 4 3 2 2 2 3 4 4 4 5 6 6 6 7 7 8 9
19 19 18 16 15 13 11 10 8 7 7 8 9 10 10 10 9 9 10 10 10 11 11 11 12 12 11 11 10 8 7 5 4 4 3 2 2 3 4 5 5 6 6 6 7 7 8 9 9
21 21 20 19 17 15 13 12 9 9 8 9 9 9 10 11 9 9 9 10 10 10 11 11 12 12 12 11 10 9 8 7 6 5 4 3 4 4 4 5 5 6 7 7 8 9 10 10 10
24 24 22 21 19 17 16 15 12 11 10 10 11 11 10 10 9 9 9 10 10 10 11 11 11 12 12 11 10 9 9 8 7 6 6 5 5 5 4 4 5 6 7 8 9 9 10 10 11
27 25 24 23 21 20 18 18 15 12 12 12 13 12 11 10 9 9 10 10 10 10 11 11 11 12 11 11 10 10 9 8 8 7 6 6 6 6 5 5 6 6 7 8 8 8 9 11 12
27 26 26 25 24 22 21 20 17 15 14 15 15 14 12 11 10 10 10 9 10 11 12 12 12 12 11 11 11 11 10 9 8 7 7 7 6 6 6 6 7 8 9 9 9 9 10 11 12
29 29 27 26 25 24 23 21 19 17 16 15 15 14 12 11 11 10 9 9 10 11 12 13 13 13 12 12 11 11 11 9 8 8 8 8 7 6 7 7 8 9 9 10 10 11 12 12 13
31 30 29 28 27 26 24 22 19 17 17 16 14 13 11 11 11 10 10 10 11 12 12 13 14 13 12 12 12 11 10 9 8 8 8 8 8 8 8 9 10 11 11 11 11 12 13 14 15
30 30 30 29 28 28 26 23 19 17 16 16 15 14 12 12 12 13 13 12 12 12 13 13 14 13 12 12 12 11 10 9 8 8 8 9 10 10 11 11 12 12 12 13 13 14 15 15 15
31 31 30 30 29 28 27 23 19 18 17 16 15 15 15 15 14 14 13 13 13 13 13 13 14 13 12 12 12 11 10 9 9 9 9 10 10 11 12 13 14 14 14 14 15 15 16 16 16
Wind_Direction
63 61 60 59 57 55 55 54 50 48 48 50 51 50 49 51 54 57 57 60 62 67 78 82 84 87 86 83 84 86 86 84 84 84 88 91 92 95 98 106 111 112 123 122 125 129 125 122 121
62 60 59 58 58 56 53 51 48 45 44 46 47 47 46 48 52 55 58 60 62 70 79 83 84 87 90 90 86 87 87 88 89 89 87 88 87 95 98 99 103 110 123 124 124 120 120 117 115
62 60 58 57 57 56 53 50 47 45 43 43 44 45 44 44 49 55 59 61 65 71 78 82 85 89 92 91 90 91 90 91 90 89 86 88 89 89 90 92 100 105 115 124 122 119 120 117 112
61 60 57 55 54 55 54 51 47 44 42 42 44 44 43 42 48 54 56 59 64 71 78 82 87 91 93 93 93 93 91 89 87 84 87 87 89 90 87 88 97 110 113 119 121 120 122 117 112
63 61 58 55 54 54 54 52 49 45 41 41 44 44 43 43 47 51 54 58 64 71 75 79 83 91 94 95 93 94 90 87 85 81 88 89 88 88 89 88 92 105 116 122 120 120 119 118 116
63 63 61 56 53 51 51 50 49 46 42 43 45 45 44 43 45 48 51 58 65 69 71 75 79 89 94 96 97 96 93 90 85 82 81 86 85 87 90 91 93 100 111 116 120 118 117 114 115
64 61 59 56 52 50 49 48 49 46 44 44 45 46 44 43 44 48 52 56 60 62 63 66 72 81 88 94 98 97 94 91 89 88 86 89 92 91 96 99 99 103 109 112 113 117 117 114 111
68 62 60 57 53 50 49 48 47 45 44 44 43 44 43 43 45 48 51 53 56 57 59 62 67 76 81 85 91 96 98 97 98 93 93 100 104 102 104 104 106 111 113 110 110 114 115 111 108
70 63 60 57 55 52 50 48 46 43 42 42 41 40 41 42 44 46 48 52 54 54 55 57 61 69 74 80 87 93 97 98 102 97 103 113 112 111 113 111 111 114 119 119 116 114 114 111 110
71 65 62 57 56 54 50 47 45 42 41 40 40 39 39 41 43 45 48 51 53 54 53 53 54 61 66 70 79 87 92 98 108 108 113 122 119 120 118 119 119 117 121 126 124 121 121 119 117
72 67 63 57 55 54 49 46 43 41 40 38 39 38 37 38 40 43 48 50 52 53 53 54 53 54 56 61 70 81 86 96 104 103 115 129 128 130 130 130 130 126 127 132 132 134 137 132 131
72 68 63 59 56 54 49 45 42 41 39 37 37 38 36 37 39 42 44 47 49 51 51 50 49 51 54 62 71 78 82 88 97 98 105 138 136 134 139 145 146 139 134 138 137 140 142 141 143
73 66 63 61 57 53 49 46 42 38 38 38 37 39 39 38 38 41 43 44 45 47 48 47 46 49 55 63 69 72 69 74 88 107 104 128 148 145 151 155 161 160 151 149 161 167 164 150 148
73 68 61 58 54 52 48 44 39 35 34 38 39 37 37 37 37 38 39 40 42 42 42 45 45 46 50 56 59 64 68 72 81 89 103 111 144 163 173 183 193 188 185 183 184 192 199 209 214
146 80 63 55 53 47 44 42 37 30 28 32 36 34 33 32 33 34 35 35 38 38 38 41 43 42 44 48 50 57 65 70 70 76 86 99 131 171 186 193 201 202 208 208 212 213 214 230 249
206 158 64 50 53 40 35 36 34 26 23 26 30 31 29 29 28 29 29 29 31 34 36 36 37 40 41 40 44 50 55 57 56 54 59 62 136 186 199 207 213 219 222 222 222 219 227 239 250
226 228 233 41 45 30 25 29 30 21 18 20 23 25 25 26 24 25 25 23 26 29 33 34 36 38 40 39 38 43 44 49 55 45 35 23 325 230 222 228 224 226 230 232 232 234 240 245 253
230 232 234 235 282 348 6 19 18 12 10 11 15 17 19 21 20 20 21 21 24 25 28 32 34 35 35 35 30 31 33 38 45 37 26 17 0 236 230 238 240 236 238 240 241 244 244 246 253
233 233 232 237 256 282 319 346 352 2 1 359 1 5 6 12 13 16 18 20 22 23 24 26 29 30 29 26 25 26 25 24 22 18 13 0 343 265 243 241 242 238 241 243 245 247 250 253 256
233 234 236 240 252 262 278 291 317 341 349 352 353 354 356 3 8 10 11 13 15 17 19 19 22 23 22 20 19 18 16 11 4 357 348 331 308 281 262 252 248 243 241 243 248 251 256 262 263
232 236 239 240 248 257 264 271 286 313 330 334 340 343 347 353 358 2 3 3 6 10 12 12 14 16 16 15 11 10 5 358 349 349 343 318 287 273 264 259 255 247 243 245 252 256 261 265 266
234 239 240 241 247 255 261 264 272 292 314 317 323 329 336 339 344 352 356 358 -0 4 3 3 5 8 8 8 7 2 356 348 339 329 317 311 295 280 266 260 262 261 259 255 261 262 265 268 270
233 238 240 243 245 252 258 264 270 283 298 305 313 320 330 330 330 338 345 351 355 357 355 355 357 358 0 2 1 358 356 348 338 330 316 302 297 287 271 264 264 265 265 268 269 268 268 271 273
232 236 239 242 245 251 259 266 271 276 286 295 302 309 318 319 318 326 334 339 343 346 347 350 355 355 357 356 358 356 352 349 343 333 324 313 300 287 279 276 278 277 277 275 273 277 276 276 277
233 236 240 244 247 255 259 264 271 277 280 283 291 299 305 308 306 311 321 326 334 337 339 340 349 349 348 350 351 348 347 345 341 333 324 315 302 288 285 288 291 289 288 285 281 282 282 282 282
234 238 243 248 251 256 260 263 269 274 277 278 282 290 298 299 300 303 312 322 326 329 331 336 341 340 338 339 340 339 338 337 338 333 328 321 314 303 296 295 297 295 293 286 280 282 285 286 286
235 240 244 248 251 255 260 265 267 268 273 277 283 288 294 294 294 296 305 317 321 322 325 329 328 326 327 329 331 331 330 328 327 326 327 327 320 308 301 300 301 302 297 290 286 287 286 286 286
236 239 242 246 251 255 259 264 268 267 270 271 272 281 290 290 288 292 300 308 314 318 318 320 325 323 324 325 327 329 328 324 323 322 319 320 318 310 302 299 301 299 300 299 296 296 293 290 290
235 237 241 245 250 253 259 262 264 268 269 267 271 276 279 282 286 291 293 297 304 310 315 318 322 324 325 325 328 329 328 324 322 318 315 316 315 313 306 301 300 300 298 299 299 298 296 295 294
234 236 240 245 250 255 259 261 261 265 265 265 268 272 273 277 281 286 289 294 295 300 306 311 314 315 318 321 324 326 328 325 318 312 311 311 310 308 305 300 298 298 298 297 297 298 297 296 295
Height
5899 5898 5896 5895 5894 5892 5888 5886 5884 5883 5883 5882 5880 5879 5878 5878 5878 5879 5876 5874 5874 5874 5874 5873 5873 5873 5873 5873 5873 5874 5875 5875 5876 5877 5877 5878 5878 5879 5879 5880 5880 5881 5881 5882 5882 5883 5884 5885 5885
5903 5901 5901 5899 5896 5893 5891 5888 5887 5886 5885 5883 5881 5880 5880 5879 5879 5878 5876 5876 5876 5875 5875 5874 5874 5874 5874 5874 5874 5875 5876 5876 5877 5878 5878 5879 5879 5879 5880 5881 5881 5881 5882 5883 5884 5885 5885 5886 5887
5906 5905 5904 5902 5899 5896 5894 5891 5890 5889 5887 5885 5884 5883 5882 5881 5880 5879 5878 5877 5877 5876 5876 5875 5875 5875 5875 5875 5875 5876 5877 5877 5878 5879 5879 5879 5880 5880 5881 5881 5882 5883 5883 5884 5885 5886 5887 5888 5889
5910 5909 5907 5905 5902 5899 5897 5895 5893 5891 5890 5888 5887 5886 5884 5884 5882 5881 5880 5879 5878 5878 5877 5876 5876 5876 5876 5876 5876 5877 5877 5878 5879 5880 5880 5880 5881 5881 5882 5883 5883 5884 5884 5885 5886 5887 5888 5889 5890
5913 5911 5910 5907 5905 5903 5900 5898 5895 5894 5893 5891 5890 5889 5887 5886 5884 5883 5882 5881 5880 5879 5878 5877 5877 5877 5877 5877 5877 5878 5878 5879 5880 5880 5881 5881 5882 5882 5883 5884 5885 5885 5886 5886 5887 5888 5889 5890 5891
5916 5914 5912 5910 5908 5906 5903 5900 5898 5897 5896 5894 5893 5892 5890 5889 5887 5885 5883 5882 5881 5880 5879 5878 5878 5878 5878 5878 5878 5879 5879 5880 5881 5881 5882 5882 5883 5883 5884 5885 5886 5886 5887 5888 5889 5890 5891 5891 5892
5918 5916 5914 5913 5911 5909 5906 5903 5901 5901 5899 5898 5896 5894 5893 5891 5889 5887 5886 5884 5883 5882 5881 5880 5880 5880 5879 5879 5880 5880 5880 5881 5881 5882 5883 5883 5884 5885 5886 5886 5887 5888 5889 5889 5890 5891 5891 5892 5893
5919 5919 5917 5915 5913 5912 5910 5907 5905 5904 5903 5901 5899 5897 5896 5894 5892 5890 5888 5887 5885 5884 5882 5882 5881 5881 5880 5880 5880 5881 5881 5882 5882 5883 5884 5884 5885 5886 5887 5887 5888 5889 5890 5891 5891 5892 5893 5893 5894
5921 5922 5919 5918 5916 5915 5913 5911 5910 5908 5906 5905 5902 5900 5899 5897 5895 5893 5891 5889 5887 5886 5884 5883 5882 5882 5882 5881 5881 5881 5882 5882 5883 5884 5884 5885 5886 5887 5887 5888 5889 5890 5891 5892 5892 5893 5894 5894 5895
5923 5923 5921 5920 5919 5918 5916 5914 5913 5912 5909 5908 5906 5903 5901 5899 5898 5896 5893 5891 5889 5888 5886 5885 5884 5884 5883 5882 5882 5882 5883 5883 5884 5884 5885 5886 5887 5888 5888 5889 5890 5891 5892 5893 5893 5894 5895 5895 5896
5925 5924 5923 5922 5921 5920 5918 5917 5915 5914 5913 5911 5909 5907 5905 5903 5900 5898 5896 5893 5891 5890 5888 5887 5886 5885 5884 5884 5883 5883 5884 5884 5884 5885 5886 5887 5887 5888 5889 5890 5891 5892 5892 5893 5894 5895 5895 5896 5896
5926 5926 5925 5924 5923 5921 5920 5919 5918 5917 5916 5914 5912 5910 5908 5906 5903 5901 5898 5896 5894 5892 5890 5889 5888 5887 5886 5885 5885 5884 5884 5885 5885 5886 5886 5887 5888 5888 5889 5890 5891 5892 5893 5894 5894 5895 5896 5896 5897
5928 5927 5927 5926 5924 5923 5922 5921 5921 5920 5918 5917 5915 5913 5911 5909 5906 5904 5901 5899 5897 5895 5893 5891 5890 5889 5887 5887 5886 5886 5886 5886 5886 5886 5887 5887 5888 5889 5890 5891 5892 5892 5893 5894 5895 5895 5896 5896 5897
5928 5928 5928 5927 5926 5925 5924 5923 5923 5922 5921 5919 5918 5916 5914 5911 5909 5906 5904 5901 5899 5897 5895 5893 5892 5890 5889 5888 5888 5887 5887 5887 5887 5887 5888 5888 5889 5889 5890 5891 5892 5893 5893 5894 5895 5895 5896 5897 5897
5928 5929 5928 5928 5927 5926 5926 5926 5925 5924 5923 5921 5920 5918 5916 5914 5911 5909 5906 5904 5902 5899 5897 5895 5894 5892 5891 5890 5889 5889 5888 5888 5888 5888 5888 5889 5889 5889 5890 5891 5892 5893 5893 5894 5895 5895 5896 5897 5897
5928 5928 5928 5928 5927 5927 5928 5927 5927 5925 5924 5923 5921 5920 5918 5916 5914 5911 5909 5906 5904 5902 5899 5897 5896 5894 5893 5892 5891 5890 5890 5889 5889 5889 5889 5889 5889 5890 5890 5891 5892 5893 5893 5894 5894 5895 5896 5896 5897
5927 5928 5928 5928 5928 5928 5928 5928 5928 5927 5925 5924 5923 5921 5920 5918 5916 5913 5911 5908 5906 5904 5901 5899 5897 5896 5895 5894 5892 5892 5891 5890 5890 5890 5889 5889 5889 5890 5890 5891 5891 5892 5892 5893 5894 5894 5895 5896 5896
5926 5927 5927 5928 5928 5928 5928 5928 5928 5927 5926 5925 5924 5922 5921 5919 5917 5915 5912 5910 5908 5905 5903 5901 5899 5897 5896 5895 5894 5893 5892 5891 5890 5890 5890 5890 5890 5890 5890 5890 5891 5891 5892 5892 5893 5894 5894 5895 5895
5925 5926 5926 5927 5927 5928 5928 5928 5928 5927 5926 5925 5924 5923 5921 5920 5918 5916 5914 5911 5909 5907 5905 5903 5900 5899 5897 5896 5894 5893 5892 5892 5891 5890 5890 5890 5890 5890 5890 5890 5890 5891 5891 5891 5892 5892 5893 5893 5894
5923 5925 5926 5926 5927 5927 5927 5927 5927 5927 5927 5925 5924 5923 5922 5920 5918 5916 5914 5912 5910 5908 5906 5904 5902 5900 5898 5897 5895 5894 5893 5892 5891 5890 5890 5889 5889 5889 5889 5889 5889 5889 5890 5890 5891 5891 5891 5892 5892
5922 5923 5924 5925 5925 5925 5926 5927 5927 5927 5926 5925 5924 5923 5921 5920 5918 5916 5915 5913 5911 5909 5907 5905 5902 5900 5899 5897 5896 5894 5893 5892 5891 5890 5889 5889 5888 5888 5888 5888 5888 5888 5889 5889 5889 5890 5890 5890 5890
5920 5921 5922 5923 5923 5924 5925 5925 5926 5926 5925 5924 5923 5922 5921 5919 5917 5916 5914 5912 5911 5909 5907 5905 5903 5901 5899 5897 5895 5894 5893 5892 5891 5890 5889 5888 5887 5887 5887 5887 5887 5887 5887 5887 5888 5888 5888 5888 5888
5917 5918 5919 5920 5921 5922 5922 5923 5925 5924 5924 5924 5922 5921 5920 5919 5917 5915 5914 5912 5910 5909 5907 5905 5903 5901 5899 5897 5895 5894 5892 5891 5890 5889 5888 5887 5887 5886 5886 5886 5886 5886 5886 5886 5886 5886 5886 5886 5886
5913 5915 5916 5917 5918 5919 5920 5920 5922 5922 5922 5922 5921 5920 5919 5918 5916 5915 5913 5912 5910 5908 5906 5904 5903 5900 5898 5897 5895 5893 5892 5891 5890 5889 5888 5887 5886 5886 5885 5885 5884 5884 5884 5884 5884 5884 5884 5884 5883
5909 5912 5913 5914 5915 5917 5917 5917 5920 5920 5920 5920 5919 5918 5917 5916 5915 5914 5912 5911 5909 5908 5906 5903 5902 5900 5898 5896 5895 5893 5892 5890 5889 5888 5887 5887 5886 5885 5885 5884 5883 5883 5882 5882 5882 5882 5881 5881 5881
5905 5907 5910 5911 5912 5913 5914 5914 5917 5917 5917 5916 5916 5916 5915 5914 5914 5912 5911 5910 5908 5906 5905 5902 5901 5899 5898 5896 5894 5892 5891 5889 5888 5887 5886 5885 5884 5884 5883 5883 5882 5881 5881 5880 5879 5879 5878 5878 5878
5900 5902 5905 5907 5907 5909 5910 5911 5913 5913 5914 5914 5914 5913 5913 5912 5911 5910 5909 5908 5906 5905 5903 5901 5899 5898 5896 5894 5892 5891 5889 5888 5887 5886 5885 5884 5883 5883 5882 5881 5880 5879 5879 5878 5877 5876 5875 5874 5874
5895 5898 5900 5901 5903 5904 5906 5907 5909 5910 5910 5911 5911 5911 5910 5909 5909 5908 5907 5906 5904 5903 5901 5899 5897 5895 5893 5892 5891 5889 5887 5886 5885 5884 5883 5883 5882 5881 5880 5879 5879 5878 5876 5875 5874 5873 5872 5871 5870
5891 5893 5895 5897 5898 5900 5901 5905 5905 5906 5907 5907 5908 5908 5907 5907 5906 5905 5905 5903 5902 5901 5899 5897 5895 5893 5891 5890 5889 5887 5885 5884 5883 5882 5881 5881 5880 5879 5878 5877 5876 5875 5874 5873 5871 5870 5869 5868 5866
5885 5887 5890 5892 5894 5895 5897 5902 5901 5902 5903 5903 5904 5904 5904 5904 5903 5902 5902 5901 5900 5898 5897 5895 5893 5891 5889 5888 5886 5885 5883 5882 5881 5880 5879 5878 5877 5876 5876 5875 5874 5873 5871 5870 5868 5867 5865 5864 5862